Location: Namasale
(1.5000°N, 32.6167°E)
Time: 16:32:40
(UTC+00:00)

CSL-04 Rocket - Pass Details

Date: 09 April 2020
Orbit: 807 x 859 km, 98.9° (Epoch: 26 May)

Event Time Altitude Azimuth Distance (km) Brightness Sun altitude
Rises 17:07:26 0° 169° (S) 3,359 6.6 -18.7°
Reaches altitude 10° 17:09:47 10° 170° (S) 2,417 5.9 -19.3°
Maximum altitude 17:15:08 81° 257° (WSW) 827 3.6 -20.6°
Drops below altitude 10° 17:20:24 10° 344° (NNW) 2,384 6.3 -21.9°
Sets 17:22:43 0° 345° (NNW) 3,310 7.1 -22.5°
